(251347) = 2006 KZ63 = 2007 TY12

Discovered at Socorro on 2007-10-06 by LINEAR.

Orbit

Orbit type: Main Belt

Note: WebGL enabled browser required.

epoch2023-09-13.0
epoch JD2460200.5
perihelion date2020-07-04.48807
perihelion JD2459034.98807
argument of perihelion (°)342.40162
ascending node (°)34.88399
inclination (°)3.31168
eccentricity0.1453162
perihelion distance (AU)1.8577863
Tisserand w.r.t. Jupiter3.7
ΔV w.r.t. Earth (km/sec)8.4
semimajor axis (AU)2.1736534
mean anomaly (°)358.45540
mean daily motion (°/day)0.30755190
aphelion distance (AU)2.490
period (years)3.2
P-vector [x]0.95454668
P-vector [y]0.27994356
P-vector [z]0.10233392
Q-vector [x]-0.29622475
Q-vector [y]0.85294318
Q-vector [z]0.42981255
absolute magnitude17.67
phase slope0.15
uncertainty0
referenceMPEC 2024-A141
observations used409
oppositions12
arc length (days)6442
first opposition used2006
last opposition used2024
residual rms (arc-secs)0.74
perturbers coarse indicatorM-v
perturbers precise indicator003Ek
first observation date used2006-05-23.0
last observation date used2024-01-11.0
computer nameMPCLINUX
JD of orbit computation2456523.302080
perihelion JD uncertainty (days)8.8417E-05
argument of perihelion uncertainty (°)7.6977E-05
ascending node uncertainty (°)7.3729E-05
inclination uncertainty (°)5.9328E-06
eccentricity uncertainty 9.3766E-08
perihelion distance uncertainty (AU)2.2804E-07
Minimum Orbit Intersection Distances (in AU)
for orbit epoch: 2460200.5, reference: E2024-AE1
Mercury1.50885
Venus1.13306
Earth0.85897
Mars0.42307
Jupiter2.96299
Saturn6.90043
Uranus15.9962
Neptune27.968

Observations

420 total observations over interval: 2006 05 23.24622 – 2024 01 11.135124
These data are available for download (format description).

Date (UT) J2000 RA J2000 Dec Magn Location Ref
2006 05 23.24622 13 53 51.33 -12 29 05.4   291 – LPL/Spacewatch II MPS 172961
2006 05 23.25006 13 53 51.17 -12 29 04.9   291 – LPL/Spacewatch II MPS 172961
2006 05 23.25386 13 53 50.98 -12 29 04.6   291 – LPL/Spacewatch II MPS 172961
2006 05 24.28626 13 53 06.97 -12 26 19.1 22.3 V G96 – Mt. Lemmon Survey MPS 172961
2006 05 24.29299 13 53 06.68 -12 26 18.6 21.3 V G96 – Mt. Lemmon Survey MPS 172961
2006 05 24.29974 13 53 06.36 -12 26 17.2 21.9 V G96 – Mt. Lemmon Survey MPS 172961
2006 05 24.30653 13 53 06.07 -12 26 16.3 21.4 V G96 – Mt. Lemmon Survey MPS 172961
2007 09 12.46780 02 51 55.72 +14 46 55.8 19.9 V G96 – Mt. Lemmon Survey MPS 218866
2007 09 12.47353 02 51 55.87 +14 46 57.2 19.9 V G96 – Mt. Lemmon Survey MPS 218866
2007 09 12.47927 02 51 55.98 +14 46 58.3 19.9 V G96 – Mt. Lemmon Survey MPS 218866
2007 09 12.48491 02 51 56.12 +14 46 59.6 20.0 V G96 – Mt. Lemmon Survey MPS 218866
2007 10 05.63752 02 51 19.64 +15 35 06.2 19.4 R D29 – Purple Mountain Observatory, XuYi Station MPS 218866
2007 10 05.68409 02 51 18.26 +15 35 08.0 19.3 R D29 – Purple Mountain Observatory, XuYi Station MPS 218866
2007 10 06.26313 02 51 01.26 +15 35 24.9 19.5   704 – Lincoln Laboratory ETS, New Mexico MPS 218866
2007 10 06.27433 02 51 00.78 +15 35 26.0 19.9   704 – Lincoln Laboratory ETS, New Mexico MPS 218866
2007 10 06.28513 02 51 00.44 +15 35 26.5 19.9   704 – Lincoln Laboratory ETS, New Mexico MPS 218866
2007 10 06.29594 02 51 00.10 +15 35 27.0 20.0   704 – Lincoln Laboratory ETS, New Mexico MPS 218866
2007 10 06.30674 02 50 59.81 +15 35 27.3 20.7   704 – Lincoln Laboratory ETS, New Mexico MPS 218866
2007 10 06.37599 02 50 57.34 +15 35 28.5   691 – Steward Observatory, Kitt Peak-Spacewatch MPS 218866
2007 10 06.39363 02 50 56.75 +15 35 28.9   691 – Steward Observatory, Kitt Peak-Spacewatch MPS 218866
2007 10 06.41123 02 50 56.18 +15 35 29.5   691 – Steward Observatory, Kitt Peak-Spacewatch MPS 218866
2007 10 07.39714 02 50 24.68 +15 35 50.7 19.5 V G96 – Mt. Lemmon Survey MPS 218866
2007 10 07.40267 02 50 24.46 +15 35 50.7 19.6 V G96 – Mt. Lemmon Survey MPS 218866
2007 10 07.40837 02 50 24.28 +15 35 50.7 19.8 V G96 – Mt. Lemmon Survey MPS 218866
2007 10 07.41390 02 50 24.07 +15 35 50.7 20.0 V G96 – Mt. Lemmon Survey MPS 218866
2007 10 08.30788 02 49 53.81 +15 36 03.5 19.4   704 – Lincoln Laboratory ETS, New Mexico MPS 218866
2007 10 08.31900 02 49 53.39 +15 36 03.8 19.9   704 – Lincoln Laboratory ETS, New Mexico MPS 218866
2007 10 08.35281 02 49 52.09 +15 36 05.0 19.9   704 – Lincoln Laboratory ETS, New Mexico MPS 218866
2007 10 10.32157 02 48 38.59 +15 36 08.9 19.8 V 691 – Steward Observatory, Kitt Peak-Spacewatch MPS 218866
2007 10 10.33922 02 48 37.76 +15 36 10.5 19.7 V 691 – Steward Observatory, Kitt Peak-Spacewatch MPS 218866
2007 10 10.35686 02 48 37.06 +15 36 09.2 19.6 V 691 – Steward Observatory, Kitt Peak-Spacewatch MPS 218866
2007 10 11.32956 02 47 57.64 +15 35 59.8 20.3   704 – Lincoln Laboratory ETS, New Mexico MPS 220709
2007 10 11.34069 02 47 57.19 +15 35 59.7 19.7   704 – Lincoln Laboratory ETS, New Mexico MPS 220709
2007 10 11.35185 02 47 56.65 +15 36 01.2 19.5   704 – Lincoln Laboratory ETS, New Mexico MPS 220709
2007 10 14.26126 02 45 47.35 +15 34 49.0 19.3   704 – Lincoln Laboratory ETS, New Mexico MPS 220709
2007 10 14.27236 02 45 46.72 +15 34 48.8 19.6   704 – Lincoln Laboratory ETS, New Mexico MPS 220709
2007 10 14.28347 02 45 46.21 +15 34 47.7 19.5   704 – Lincoln Laboratory ETS, New Mexico MPS 220709
2007 10 14.30572 02 45 45.04 +15 34 47.8 19.6   704 – Lincoln Laboratory ETS, New Mexico MPS 220709
2007 10 14.30761 02 45 44.99 +15 34 47.7 19.9 V 691 – Steward Observatory, Kitt Peak-Spacewatch MPS 220709
2007 10 14.32528 02 45 44.07 +15 34 47.2 20.0 V 691 – Steward Observatory, Kitt Peak-Spacewatch MPS 220709
2007 10 14.34294 02 45 43.19 +15 34 46.8 19.6 V 691 – Steward Observatory, Kitt Peak-Spacewatch MPS 220709
2007 10 15.34898 02 44 54.45 +15 34 07.2 18.9 V 703 – Catalina Sky Survey MPS 220709
2007 10 15.35699 02 44 54.06 +15 34 07.7 18.9 V 703 – Catalina Sky Survey MPS 220709
2007 10 15.36505 02 44 53.62 +15 34 06.8 19.0 V 703 – Catalina Sky Survey MPS 220709
2007 10 15.37309 02 44 53.19 +15 34 06.3 19.0 V 703 – Catalina Sky Survey MPS 220709
2007 10 18.32247 02 42 20.56 +15 31 30.9 19.6 V 691 – Steward Observatory, Kitt Peak-Spacewatch MPS 220709
2007 10 18.34016 02 42 19.54 +15 31 28.9 19.3 V 691 – Steward Observatory, Kitt Peak-Spacewatch MPS 220709
2007 10 18.35547 02 42 18.64 +15 31 27.7 19.1 V 691 – Steward Observatory, Kitt Peak-Spacewatch MPS 220709
2007 10 20.29891 02 40 30.90 +15 29 13.6 18.7 V 703 – Catalina Sky Survey MPS 222596
2007 10 20.30705 02 40 30.36 +15 29 12.5 18.6 V 703 – Catalina Sky Survey MPS 222596
2007 10 20.31517 02 40 29.85 +15 29 12.8 19.0 V 703 – Catalina Sky Survey MPS 222596
2007 10 20.32330 02 40 29.31 +15 29 11.4 18.7 V 703 – Catalina Sky Survey MPS 222596
2007 10 30.34505 02 30 11.01 +15 12 25.4 18.6 V 703 – Catalina Sky Survey MPS 223542
2007 10 30.35507 02 30 10.36 +15 12 24.1 18.5 V 703 – Catalina Sky Survey MPS 223542
2007 10 30.36513 02 30 09.72 +15 12 22.2 19.1 V 703 – Catalina Sky Survey MPS 223542
2007 10 30.37514 02 30 09.10 +15 12 21.7 18.7 V 703 – Catalina Sky Survey MPS 223542
2007 10 31.23623 02 29 13.74 +15 10 36.8 18.9 V G96 – Mt. Lemmon Survey MPS 223543
2007 10 31.24292 02 29 13.27 +15 10 36.1 18.7 V G96 – Mt. Lemmon Survey MPS 223543
2007 10 31.24957 02 29 12.84 +15 10 34.9 18.5 V G96 – Mt. Lemmon Survey MPS 223543
2007 10 31.25630 02 29 12.40 +15 10 34.2 18.4 V G96 – Mt. Lemmon Survey MPS 223543
2007 11 02.29815 02 26 59.92 +15 06 19.2 18.6 V G96 – Mt. Lemmon Survey MPS 224985
2007 11 02.30646 02 26 59.35 +15 06 18.1 18.3 V G96 – Mt. Lemmon Survey MPS 224985
2007 11 02.31468 02 26 58.77 +15 06 17.1 18.1 V G96 – Mt. Lemmon Survey MPS 224985
2007 11 02.32286 02 26 58.27 +15 06 15.8 18.0 V G96 – Mt. Lemmon Survey MPS 224985
2007 11 03.26139 02 25 57.79 +15 04 16.4 18.8 V G96 – Mt. Lemmon Survey MPS 224985
2007 11 03.27277 02 25 57.03 +15 04 15.0 18.5 V G96 – Mt. Lemmon Survey MPS 224985
2007 11 03.28421 02 25 56.24 +15 04 13.4 18.2 V G96 – Mt. Lemmon Survey MPS 224985
2007 11 03.29564 02 25 55.45 +15 04 12.1 18.0 V G96 – Mt. Lemmon Survey MPS 224985
2007 11 03.47531 02 25 43.35 +15 03 47.2 18.6 V G96 – Mt. Lemmon Survey MPS 224985
2007 11 03.47904 02 25 43.10 +15 03 46.6 18.6 V G96 – Mt. Lemmon Survey MPS 224985
2007 11 03.48275 02 25 42.85 +15 03 46.0 18.6 V G96 – Mt. Lemmon Survey MPS 224985
2007 11 03.48646 02 25 42.60 +15 03 46.0 18.7 V G96 – Mt. Lemmon Survey MPS 224985
2007 11 04.26301 02 24 53.28 +15 02 07.3 18.4 V G96 – Mt. Lemmon Survey MPS 224985
2007 11 04.26792 02 24 52.95 +15 02 06.6 18.4 V G96 – Mt. Lemmon Survey MPS 224985
2007 11 04.27286 02 24 52.63 +15 02 06.2 18.4 V G96 – Mt. Lemmon Survey MPS 224985
2007 11 04.28236 02 24 51.98 +15 02 04.9 18.2 V G96 – Mt. Lemmon Survey MPS 224985
2007 11 06.25043 02 22 46.57 +14 57 51.2 19.2   704 – Lincoln Laboratory ETS, New Mexico MPS 224985
2007 11 06.26252 02 22 45.77 +14 57 48.7 19.5   704 – Lincoln Laboratory ETS, New Mexico MPS 224985
2007 11 06.28669 02 22 44.13 +14 57 45.7 19.8   704 – Lincoln Laboratory ETS, New Mexico MPS 224985
2007 11 06.29871 02 22 43.39 +14 57 45.1 19.6   704 – Lincoln Laboratory ETS, New Mexico MPS 224985
2007 11 07.32067 02 21 39.09 +14 55 32.8 18.5 V 703 – Catalina Sky Survey MPS 224985
2007 11 07.33490 02 21 38.12 +14 55 31.1 18.6 V 703 – Catalina Sky Survey MPS 224985
2007 11 07.34914 02 21 37.22 +14 55 28.4 18.7 V 703 – Catalina Sky Survey MPS 224985
2007 11 07.36340 02 21 36.28 +14 55 27.6 19.2 V 703 – Catalina Sky Survey MPS 224985
2007 11 15.20032 02 13 59.70 +14 39 47.2 19.3   704 – Lincoln Laboratory ETS, New Mexico MPS 226935
2007 11 15.21287 02 13 59.02 +14 39 45.3 19.9   704 – Lincoln Laboratory ETS, New Mexico MPS 226935
2007 11 15.23774 02 13 57.55 +14 39 43.2 20.5   704 – Lincoln Laboratory ETS, New Mexico MPS 226935
2007 11 15.25025 02 13 56.89 +14 39 42.7 19.9   704 – Lincoln Laboratory ETS, New Mexico MPS 226935
2007 11 17.32027 02 12 10.29 +14 36 11.8 18.7 V 703 – Catalina Sky Survey MPS 228320
2007 11 17.32938 02 12 09.75 +14 36 11.0 19.0 V 703 – Catalina Sky Survey MPS 228320
